Flag for Germany Weather past 2 weeks in Ratingen, North Rhine-Westphalia, Germany

Now
77 °F

Sunny.


Feels Like: 79 °F
Forecast: 56 / 64 °F
Wind: 15 mph from West

Location: Duesseldorf

Current Time: Jul 7, 2015 at 8:22:07 PM

Latest Report: Jul 7, 2015 at 7:50 PM


Visibility: 10 mi

Pressure: 29.74 "Hg

Humidity: 51%

Dew point: 57 °F

Location of RatingenLocation

Historic Weather in Ratingen — Graph

°F

Ratingen temperature yesterday

Maximum temperature yesterday: 77 °F (at 3:50 PM)
Minimum temperature yesterday: 59 °F (at 6:20 AM)
Average temperature yesterday: 69 °F

Past Weeks' High & Low Weather Summary

 TemperatureHumidityPressure
High99 °F (Jul 2, 3:20 PM)100% (Jun 23, 6:50 AM)30.24 "Hg (Jun 23, 6:50 AM)
Low50 °F (Jun 22, 10:20 PM)23% (Jul 1, 5:20 PM)29.71 "Hg (Jun 22, 7:20 PM)
Average71 °F61%30.07 "Hg
* Reported Jun 22 7:20 PM — Jul 7 7:20 PM, Ratingen, Weather by CustomWeather, © 2015

Note: Actual official high and low records may vary slightly from our data, if they occured in-between our weather recording intervals... More about our weather records

Advertising

Ratingen weather history for previous 24 hours

 ConditionsComfort  
Time TempWeatherWind HumidityBarometerVisibility
7:20 PM
Tue, Jul 7
77 °FSunny.13 mph51%29.74 "Hg10 mi
6:50 PM79 °FPartly sunny.12 mph45%29.74 "HgN/A
6:20 PM79 °FPartly sunny.15 mph42%29.74 "HgN/A
5:50 PM81 °FBroken clouds.15 mph42%29.74 "HgN/A
5:20 PM81 °FPartly sunny.16 mph45%29.74 "HgN/A
4:50 PM81 °FSprinkles. Broken clouds.10 mph48%29.74 "HgN/A
4:20 PM81 °FSprinkles. Broken clouds.10 mph48%29.74 "HgN/A
3:50 PM84 °FBroken clouds.13 mph37%29.74 "HgN/A
3:20 PM86 °FPartly sunny.12 mph40%29.74 "HgN/A
2:50 PM84 °FSunny.12 mph43%29.77 "Hg10 mi
2:20 PM86 °FBroken clouds.10 mph40%29.77 "HgN/A
1:50 PM86 °FSunny.12 mph40%29.77 "Hg10 mi
1:20 PM88 °FSunny.9 mph35%29.77 "Hg10 mi
12:50 PM86 °FSunny.8 mph31%29.80 "Hg10 mi
12:20 PM86 °FSunny.8 mph31%29.80 "Hg10 mi
11:50 AM84 °FSunny.8 mph35%29.83 "Hg10 mi
11:20 AM82 °FSunny.7 mph35%29.83 "Hg10 mi
10:50 AM81 °FSunny.7 mph39%29.83 "Hg10 mi
10:20 AM79 °FSunny.10 mph37%29.86 "Hg10 mi
9:50 AM77 °FSunny.9 mph42%29.86 "Hg10 mi
9:20 AM75 °FSunny.6 mph44%29.89 "Hg10 mi
8:50 AM72 °FSunny.10 mph50%29.89 "Hg10 mi
8:20 AM70 °FSunny.13 mph57%29.92 "Hg10 mi
7:50 AM70 °FSunny.12 mph57%29.92 "Hg10 mi
7:20 AM68 °FSunny.10 mph56%29.92 "Hg10 mi
6:50 AM66 °FSunny.9 mph64%29.95 "Hg10 mi
6:20 AM64 °FClear.8 mph68%29.95 "Hg10 mi
5:50 AM61 °FClear.2 mph77%29.95 "Hg10 mi
5:20 AM61 °FClear.8 mph77%29.95 "Hg10 mi
4:50 AM59 °FClear.3 mph82%29.98 "Hg10 mi
4:20 AM59 °FClear.1 mph82%29.98 "Hg10 mi
3:50 AM61 °FClear.1 mph77%29.98 "Hg10 mi
3:20 AM61 °FClear.2 mph77%29.98 "Hg10 mi
2:50 AM61 °FClear.5 mph77%30.01 "Hg10 mi
2:20 AM61 °FClear.5 mph77%30.01 "Hg10 mi
1:50 AM61 °FClear.2 mph77%30.01 "Hg10 mi
1:20 AM63 °FClear.5 mph73%30.04 "Hg10 mi
12:50 AM63 °FClear.3 mph73%30.04 "Hg10 mi
12:20 AM64 °FClear.3 mph68%30.04 "Hg10 mi
11:50 PM
Mon, Jul 6
64 °FClear.3 mph68%30.04 "Hg10 mi
11:20 PM66 °FClear.3 mph60%30.07 "Hg10 mi
10:50 PM66 °FClear.5 mph60%30.07 "Hg10 mi
10:20 PM68 °FSunny.2 mph60%30.07 "Hg10 mi
9:50 PM72 °FSunny.2 mph50%30.07 "Hg10 mi
9:20 PM73 °FSunny.1 mph50%30.07 "Hg10 mi
8:50 PM75 °FSunny.2 mph41%30.07 "Hg10 mi
8:20 PM77 °FSunny.6 mph36%30.07 "Hg10 mi
Weather by CustomWeather, © 2015

See weather overviewHow to use our weather pages